| time (UTC) | temp F | wind direction | speed MPH | gust MPH | rain 1hr in | rain 24hr in | rain mn in | humidity % | barometer mb |
| 20260506201538 | 44 | 49 | 1.0 | 4.0 | 0.04 | 0.52 | 0.45 | 95 | 1007.7 |
| 20260506201024 | 44 | 0 | 1.0 | 3.0 | 0.04 | 0.52 | 0.44 | 95 | 1007.8 |
| 20260506200522 | 44 | 300 | 1.0 | 3.0 | 0.04 | 0.52 | 0.44 | 95 | 1007.7 |
| 20260506200044 | 44 | 346 | 1.0 | 5.0 | 0.04 | 0.52 | 0.44 | 95 | 1007.7 |
| 20260506195524 | 44 | 321 | 2.0 | 5.0 | 0.04 | 0.70 | 0.44 | 95 | 1007.6 |
| 20260506195027 | 44 | 326 | 2.0 | 5.0 | 0.03 | 0.69 | 0.43 | 95 | 1007.6 |
| 20260506194558 | 44 | 337 | 2.0 | 5.0 | 0.03 | 0.69 | 0.43 | 95 | 1007.6 |
| 20260506194024 | 44 | 283 | 1.0 | 4.0 | 0.03 | 0.69 | 0.43 | 95 | 1007.7 |
| 20260506193525 | 44 | 323 | 1.0 | 4.0 | 0.03 | 0.68 | 0.42 | 95 | 1007.6 |
| 20260506193040 | 44 | 315 | 2.0 | 4.0 | 0.03 | 0.68 | 0.42 | 95 | 1007.6 |
| 20260506192524 | 44 | 348 | 2.0 | 4.0 | 0.02 | 0.67 | 0.41 | 95 | 1007.6 |
| 20260506192024 | 44 | 326 | 2.0 | 4.0 | 0.02 | 0.67 | 0.41 | 95 | 1007.5 |
| 20260506191541 | 44 | 338 | 1.0 | 7.0 | 0.02 | 0.67 | 0.41 | 95 | 1007.4 |
| 20260506191024 | 44 | 338 | 2.0 | 7.0 | 0.01 | 0.66 | 0.40 | 95 | 1007.4 |
| 20260506190528 | 44 | 327 | 1.0 | 4.0 | 0.01 | 0.66 | 0.40 | 96 | 1007.3 |
| 20260506190043 | 44 | 327 | 2.0 | 4.0 | 0.01 | 0.66 | 0.40 | 95 | 1007.2 |
| 20260506185523 | 44 | 331 | 2.0 | 4.0 | 0.01 | 0.66 | 0.40 | 95 | 1007.2 |
| 20260506185021 | 44 | 360 | 1.0 | 3.0 | 0.01 | 0.66 | 0.40 | 95 | 1007.2 |
| 20260506184542 | 44 | 341 | 1.0 | 3.0 | 0.01 | 0.66 | 0.40 | 95 | 1007.2 |
| 20260506184024 | 44 | 352 | 1.0 | 3.0 | 0.01 | 0.66 | 0.40 | 95 | 1007.1 |
| 20260506183525 | 44 | 9 | 1.0 | 3.0 | 0.00 | 0.65 | 0.39 | 95 | 1007.1 |
| 20260506183046 | 44 | 355 | 1.0 | 3.0 | 0.01 | 0.65 | 0.39 | 96 | 1007.1 |
| 20260506182524 | 44 | 352 | 1.0 | 4.0 | 0.01 | 0.65 | 0.39 | 96 | 1006.9 |
| 20260506182024 | 44 | 342 | 1.0 | 4.0 | 0.01 | 0.65 | 0.39 | 95 | 1006.9 |
| 20260506181547 | 44 | 24 | 1.0 | 4.0 | 0.01 | 0.65 | 0.39 | 95 | 1007.0 |
| 20260506181024 | 44 | 326 | 1.0 | 4.0 | 0.01 | 0.65 | 0.39 | 95 | 1007.0 |
| 20260506180527 | 44 | 351 | 2.0 | 4.0 | 0.01 | 0.65 | 0.39 | 95 | 1007.0 |
| 20260506180048 | 44 | 340 | 2.0 | 4.0 | 0.02 | 0.65 | 0.39 | 95 | 1007.0 |
| 20260506175524 | 44 | 336 | 1.0 | 3.0 | 0.02 | 0.81 | 0.39 | 95 | 1006.9 |
| 20260506175023 | 44 | 333 | 1.0 | 3.0 | 0.02 | 0.81 | 0.39 | 95 | 1006.8 |
| 20260506174543 | 44 | 337 | 2.0 | 4.0 | 0.02 | 0.81 | 0.39 | 95 | 1006.8 |
| 20260506174025 | 44 | 334 | 1.0 | 4.0 | 0.02 | 0.81 | 0.39 | 96 | 1006.7 |
| 20260506173525 | 43 | 355 | 2.0 | 4.0 | 0.02 | 0.81 | 0.39 | 95 | 1006.8 |
| 20260506173050 | 43 | 355 | 2.0 | 4.0 | 0.01 | 0.80 | 0.38 | 95 | 1006.9 |
| 20260506172524 | 43 | 355 | 1.0 | 4.0 | 0.01 | 0.80 | 0.38 | 96 | 1006.8 |
| 20260506172024 | 43 | 346 | 1.0 | 3.0 | 0.02 | 0.80 | 0.38 | 95 | 1006.9 |
| 20260506171554 | 43 | 346 | 1.0 | 3.0 | 0.02 | 0.80 | 0.38 | 96 | 1006.8 |
| 20260506171024 | 43 | 333 | 0.0 | 4.0 | 0.02 | 0.80 | 0.38 | 96 | 1006.8 |
| 20260506170524 | 43 | 333 | 1.0 | 4.0 | 0.02 | 0.80 | 0.38 | 95 | 1006.9 |
| 20260506170047 | 43 | 355 | 1.0 | 3.0 | 0.01 | 0.79 | 0.37 | 95 | 1006.9 |
| 20260506165524 | 43 | 355 | 1.0 | 3.0 | 0.02 | 0.79 | 0.37 | 95 | 1007.0 |
| 20260506165024 | 42 | 355 | 1.0 | 4.0 | 0.02 | 0.79 | 0.37 | 95 | 1006.9 |
| 20260506164536 | 42 | 355 | 1.0 | 4.0 | 0.02 | 0.79 | 0.37 | 95 | 1006.9 |
| 20260506164023 | 42 | 352 | 2.0 | 5.0 | 0.04 | 0.79 | 0.37 | 95 | 1007.0 |
| 20260506163525 | 43 | 355 | 2.0 | 5.0 | 0.04 | 0.79 | 0.37 | 95 | 1007.0 |
| 20260506163048 | 43 | 342 | 1.0 | 3.0 | 0.05 | 0.79 | 0.37 | 95 | 1006.9 |
| 20260506162524 | 43 | 352 | 2.0 | 4.0 | 0.05 | 0.79 | 0.37 | 96 | 1006.8 |
| 20260506162027 | 43 | 355 | 1.0 | 4.0 | 0.04 | 0.78 | 0.36 | 95 | 1006.8 |
| 20260506161551 | 43 | 349 | 1.0 | 4.0 | 0.05 | 0.78 | 0.36 | 95 | 1006.9 |
| 20260506161024 | 42 | 334 | 2.0 | 4.0 | 0.05 | 0.78 | 0.36 | 95 | 1007.0 |
| 20260506160524 | 42 | 338 | 3.0 | 4.0 | 0.05 | 0.78 | 0.36 | 95 | 1007.0 |
| 20260506160048 | 42 | 20 | 2.0 | 4.0 | 0.06 | 0.78 | 0.36 | 95 | 1006.9 |
| 20260506155524 | 43 | 339 | 2.0 | 3.0 | 0.05 | 0.77 | 0.35 | 95 | 1007.0 |
| 20260506155028 | 42 | 355 | 1.0 | 4.0 | 0.05 | 0.77 | 0.35 | 95 | 1006.9 |
| 20260506154606 | 42 | 355 | 1.0 | 4.0 | 0.05 | 0.77 | 0.35 | 95 | 1006.9 |
| 20260506154025 | 43 | 348 | 1.0 | 4.0 | 0.04 | 0.75 | 0.33 | 95 | 1006.8 |
| 20260506153524 | 43 | 355 | 2.0 | 4.0 | 0.04 | 0.75 | 0.33 | 95 | 1006.9 |
| 20260506153038 | 43 | 329 | 2.0 | 4.0 | 0.03 | 0.74 | 0.32 | 95 | 1007.0 |
| 20260506152524 | 43 | 360 | 2.0 | 4.0 | 0.03 | 0.74 | 0.32 | 95 | 1006.9 |
| 20260506152026 | 43 | 10 | 2.0 | 4.0 | 0.03 | 0.74 | 0.32 | 95 | 1006.8 |
| 20260506151545 | 43 | 9 | 1.0 | 5.0 | 0.03 | 0.73 | 0.31 | 95 | 1006.7 |
| 20260506151028 | 43 | 346 | 3.0 | 5.0 | 0.03 | 0.73 | 0.31 | 95 | 1006.8 |
| 20260506150524 | 44 | 341 | 2.0 | 4.0 | 0.03 | 0.72 | 0.30 | 95 | 1006.8 |
| 20260506150050 | 44 | 340 | 2.0 | 4.0 | 0.03 | 0.72 | 0.30 | 95 | 1006.7 |
| 20260506145529 | 44 | 329 | 2.0 | 4.0 | 0.04 | 0.72 | 0.30 | 94 | 1006.6 |
| 20260506145024 | 44 | 9 | 2.0 | 4.0 | 0.05 | 0.72 | 0.30 | 94 | 1006.4 |
| 20260506144558 | 45 | 336 | 0.0 | 3.0 | 0.06 | 0.72 | 0.30 | 94 | 1006.6 |
| 20260506144025 | 46 | 0 | 0.0 | 2.0 | 0.06 | 0.71 | 0.29 | 95 | 1006.6 |
| 20260506143521 | 46 | 0 | 0.0 | 3.0 | 0.07 | 0.71 | 0.29 | 94 | 1006.5 |
| 20260506143041 | 46 | 336 | 1.0 | 3.0 | 0.08 | 0.71 | 0.29 | 94 | 1006.7 |
| 20260506142524 | 47 | 336 | 1.0 | 4.0 | 0.09 | 0.71 | 0.29 | 94 | 1006.6 |
| 20260506142023 | 47 | 325 | 1.0 | 4.0 | 0.10 | 0.71 | 0.29 | 95 | 1006.7 |
| 20260506141536 | 48 | 9 | 1.0 | 4.0 | 0.10 | 0.70 | 0.28 | 96 | 1006.7 |
| 20260506141026 | 47 | 171 | 0.0 | 4.0 | 0.12 | 0.70 | 0.28 | 96 | 1006.7 |
| 20260506140525 | 47 | 171 | 0.0 | 4.0 | 0.13 | 0.69 | 0.27 | 96 | 1006.9 |
| 20260506140056 | 47 | 171 | 1.0 | 4.0 | 0.14 | 0.69 | 0.27 | 96 | 1006.7 |
| 20260506135524 | 47 | 171 | 2.0 | 4.0 | 0.14 | 0.68 | 0.26 | 96 | 1006.7 |
| 20260506135025 | 47 | 171 | 0.0 | 2.0 | 0.14 | 0.67 | 0.25 | 96 | 1006.9 |
| 20260506134548 | 46 | 0 | 0.0 | 4.0 | 0.12 | 0.65 | 0.23 | 96 | 1007.0 |
| 20260506134024 | 46 | 0 | 0.0 | 4.0 | 0.13 | 0.65 | 0.23 | 96 | 1006.9 |
| 20260506133524 | 46 | 255 | 0.0 | 3.0 | 0.12 | 0.64 | 0.22 | 95 | 1006.8 |
| 20260506133047 | 46 | 255 | 1.0 | 3.0 | 0.11 | 0.63 | 0.21 | 96 | 1007.0 |
| 20260506132522 | 46 | 0 | 0.0 | 7.0 | 0.10 | 0.62 | 0.20 | 95 | 1007.0 |
| 20260506132025 | 46 | 244 | 1.0 | 7.0 | 0.09 | 0.61 | 0.19 | 95 | 1007.2 |
| 20260506131540 | 46 | 275 | 1.0 | 8.0 | 0.08 | 0.58 | 0.17 | 95 | 1007.2 |
| 20260506131024 | 46 | 308 | 1.0 | 8.0 | 0.06 | 0.57 | 0.15 | 95 | 1007.3 |
| 20260506130525 | 46 | 288 | 0.0 | 3.0 | 0.06 | 0.56 | 0.14 | 95 | 1007.2 |
| 20260506130043 | 47 | 271 | 0.0 | 3.0 | 0.05 | 0.55 | 0.13 | 96 | 1007.1 |
| 20260506125523 | 46 | 271 | 0.0 | 3.0 | 0.04 | 0.54 | 0.12 | 96 | 1006.9 |
| 20260506125021 | 46 | 271 | 1.0 | 3.0 | 0.04 | 0.52 | 0.11 | 96 | 1006.9 |
| 20260506124536 | 46 | 0 | 1.0 | 2.0 | 0.04 | 0.52 | 0.11 | 95 | 1006.8 |
| 20260506124025 | 46 | 0 | 0.0 | 2.0 | 0.03 | 0.52 | 0.10 | 95 | 1006.7 |
| 20260506123525 | 46 | 0 | 0.0 | 2.0 | 0.03 | 0.52 | 0.10 | 95 | 1006.7 |
| 20260506123047 | 46 | 134 | 1.0 | 2.0 | 0.04 | 0.52 | 0.10 | 96 | 1006.8 |
| 20260506122526 | 46 | 134 | 1.0 | 2.0 | 0.04 | 0.52 | 0.10 | 95 | 1006.8 |
| 20260506122024 | 46 | 134 | 0.0 | 2.0 | 0.04 | 0.52 | 0.10 | 95 | 1006.9 |
| 20260506121541 | 46 | 0 | 0.0 | 3.0 | 0.04 | 0.51 | 0.09 | 95 | 1006.9 |
| 20260506121024 | 46 | 0 | 0.0 | 3.0 | 0.04 | 0.51 | 0.09 | 95 | 1007.0 |
| 20260506120524 | 46 | 134 | 1.0 | 3.0 | 0.03 | 0.50 | 0.08 | 95 | 1006.9 |
| 20260506120046 | 46 | 134 | 1.0 | 3.0 | 0.03 | 0.50 | 0.08 | 95 | 1007.2 |
| 20260506115524 | 46 | 134 | 1.0 | 3.0 | 0.03 | 0.50 | 0.08 | 95 | 1007.2 |
| 20260506115024 | 45 | 127 | 1.0 | 3.0 | 0.02 | 0.49 | 0.07 | 95 | 1007.2 |
| 20260506114539 | 45 | 127 | 1.0 | 3.0 | 0.03 | 0.49 | 0.07 | 95 | 1007.3 |
| 20260506114028 | 45 | 127 | 1.0 | 3.0 | 0.03 | 0.49 | 0.07 | 95 | 1007.3 |
| 20260506113526 | 45 | 127 | 1.0 | 3.0 | 0.03 | 0.49 | 0.07 | 95 | 1007.3 |
| 20260506113049 | 45 | 69 | 1.0 | 3.0 | 0.02 | 0.48 | 0.06 | 95 | 1007.5 |
| 20260506112524 | 45 | 69 | 0.0 | 3.0 | 0.02 | 0.48 | 0.06 | 95 | 1007.5 |
| 20260506112114 | 45 | 0 | 1.0 | 3.0 | 0.02 | 0.48 | 0.06 | 95 | 1007.7 |
| 20260506111542 | 45 | 57 | 0.0 | 2.0 | 0.01 | 0.47 | 0.05 | 95 | 1007.8 |
| 20260506111021 | 45 | 57 | 0.0 | 5.0 | 0.01 | 0.47 | 0.05 | 95 | 1007.8 |
| 20260506110521 | 45 | 0 | 2.0 | 5.0 | 0.02 | 0.47 | 0.05 | 95 | 1007.8 |
| 20260506110043 | 45 | 360 | 0.0 | 5.0 | 0.02 | 0.47 | 0.05 | 95 | 1007.8 |
| 20260506105524 | 45 | 360 | 1.0 | 5.0 | 0.02 | 0.47 | 0.05 | 95 | 1007.7 |
| 20260506105024 | 45 | 9 | 2.0 | 5.0 | 0.02 | 0.47 | 0.05 | 95 | 1007.5 |
| 20260506104546 | 45 | 360 | 2.0 | 5.0 | 0.01 | 0.46 | 0.04 | 95 | 1007.5 |
| 20260506104024 | 45 | 360 | 0.0 | 5.0 | 0.01 | 0.46 | 0.04 | 95 | 1007.5 |
| 20260506103524 | 45 | 11 | 2.0 | 4.0 | 0.01 | 0.46 | 0.04 | 95 | 1007.5 |
| 20260506103042 | 45 | 355 | 1.0 | 3.0 | 0.02 | 0.46 | 0.04 | 95 | 1007.6 |
| 20260506102525 | 45 | 355 | 1.0 | 3.0 | 0.02 | 0.46 | 0.04 | 95 | 1007.8 |
| 20260506102024 | 45 | 352 | 1.0 | 3.0 | 0.02 | 0.46 | 0.04 | 95 | 1007.7 |
| 20260506101545 | 45 | 352 | 1.0 | 2.0 | 0.03 | 0.46 | 0.04 | 95 | 1007.8 |
| 20260506101023 | 45 | 20 | 0.0 | 4.0 | 0.03 | 0.46 | 0.04 | 95 | 1007.5 |
| 20260506100523 | 45 | 0 | 0.0 | 4.0 | 0.02 | 0.45 | 0.03 | 95 | 1007.6 |
| 20260506100043 | 45 | 0 | 0.0 | 5.0 | 0.02 | 0.45 | 0.03 | 95 | 1007.5 |
| 20260506095521 | 45 | 360 | 2.0 | 5.0 | 0.02 | 0.45 | 0.03 | 95 | 1007.4 |
| 20260506095024 | 45 | 360 | 1.0 | 5.0 | 0.03 | 0.45 | 0.03 | 95 | 1007.5 |
| 20260506094539 | 45 | 336 | 2.0 | 5.0 | 0.03 | 0.45 | 0.03 | 95 | 1007.6 |
| 20260506094023 | 45 | 10 | 1.0 | 4.0 | 0.03 | 0.45 | 0.03 | 95 | 1007.7 |
| 20260506093524 | 45 | 352 | 1.0 | 4.0 | 0.03 | 0.45 | 0.03 | 95 | 1007.8 |
| 20260506093039 | 45 | 338 | 2.0 | 4.0 | 0.02 | 0.44 | 0.02 | 95 | 1007.8 |
| 20260506092527 | 45 | 338 | 1.0 | 4.0 | 0.02 | 0.44 | 0.02 | 95 | 1007.8 |
| 20260506092022 | 45 | 338 | 1.0 | 4.0 | 0.02 | 0.44 | 0.02 | 94 | 1007.8 |
| 20260506091537 | 45 | 317 | 1.0 | 3.0 | 0.01 | 0.43 | 0.01 | 94 | 1007.9 |
| 20260506091023 | 45 | 340 | 1.0 | 3.0 | 0.01 | 0.43 | 0.01 | 94 | 1007.8 |
| 20260506090526 | 45 | 323 | 1.0 | 6.0 | 0.01 | 0.43 | 0.01 | 94 | 1007.8 |
| 20260506090043 | 45 | 300 | 1.0 | 6.0 | 0.01 | 0.43 | 0.01 | 95 | 1007.8 |
| 20260506085523 | 45 | 43 | 1.0 | 6.0 | 0.00 | 0.42 | 0.00 | 95 | 1007.7 |
| 20260506085024 | 46 | 261 | 3.0 | 6.0 | 0.00 | 0.42 | 0.00 | 95 | 1007.8 |
| 20260506084543 | 46 | 275 | 3.0 | 6.0 | 0.00 | 0.42 | 0.00 | 95 | 1008.0 |
| 20260506084023 | 46 | 0 | 2.0 | 4.0 | 0.00 | 0.42 | 0.00 | 95 | 1008.0 |
| 20260506083524 | 45 | 84 | 0.0 | 2.0 | 0.00 | 0.42 | 0.00 | 95 | 1008.0 |
| 20260506083040 | 45 | 84 | 0.0 | 3.0 | 0.00 | 0.42 | 0.00 | 95 | 1008.0 |
| 20260506082521 | 45 | 84 | 1.0 | 3.0 | 0.00 | 0.42 | 0.00 | 95 | 1008.0 |
| 20260506082022 | 45 | 84 | 0.0 | 3.0 | 0.00 | 0.42 | 0.00 | 94 | 1007.7 |
| 20260506081536 | 45 | 84 | 1.0 | 3.0 | 0.00 | 0.42 | 0.00 | 95 | 1007.7 |
| 20260506081023 | 45 | 94 | 1.0 | 3.0 | 0.00 | 0.42 | 0.00 | 94 | 1007.9 |
| 20260506080524 | 45 | 0 | 0.0 | 4.0 | 0.00 | 0.42 | 0.00 | 94 | 1007.8 |
| 20260506073521 | 45 | 72 | 3.0 | 8.0 | 0.00 | 0.42 | 0.00 | 94 | 1008.1 |
| 20260506073037 | 45 | 87 | 4.0 | 8.0 | 0.00 | 0.42 | 0.00 | 94 | 1008.0 |
| 20260506072521 | 45 | 88 | 4.0 | 5.0 | 0.00 | 0.42 | 0.00 | 94 | 1008.2 |
| 20260506072020 | 45 | 50 | 2.0 | 5.0 | 0.00 | 0.42 | 0.00 | 94 | 1008.5 |
| 20260506071539 | 45 | 42 | 1.0 | 5.0 | 0.00 | 0.42 | 0.00 | 94 | 1008.5 |
| 20260506071026 | 45 | 40 | 2.0 | 5.0 | 0.00 | 0.42 | 0.00 | 94 | 1008.7 |
| 20260506070525 | 46 | 344 | 2.0 | 3.0 | 0.00 | 0.42 | 0.00 | 94 | 1009.1 |
| 20260506062024 | 46 | 30 | 0.0 | 4.0 | 0.00 | 0.42 | 0.00 | 93 | 1009.2 |
| 20260506061542 | 46 | 0 | 1.0 | 4.0 | 0.00 | 0.42 | 0.00 | 93 | 1009.1 |
| 20260506061020 | 46 | 12 | 1.0 | 4.0 | 0.00 | 0.42 | 0.00 | 93 | 1009.2 |
| 20260506060524 | 46 | 19 | 1.0 | 3.0 | 0.00 | 0.42 | 0.00 | 93 | 1009.4 |
| 20260506051025 | 46 | 0 | 0.0 | 3.0 | 0.00 | 0.42 | 0.00 | 93 | 1010.0 |
| 20260506050528 | 46 | 9 | 0.0 | 2.0 | 0.00 | 0.42 | 0.00 | 93 | 1009.9 |
| 20260506045025 | 46 | 9 | 1.0 | 3.0 | 0.00 | 0.42 | 0.00 | 93 | 1010.0 |
| 20260506044543 | 46 | 0 | 0.0 | 2.0 | 0.00 | 0.42 | 0.00 | 93 | 1010.2 |
| 20260506044025 | 46 | 0 | 0.0 | 2.0 | 0.00 | 0.42 | 0.00 | 93 | 1010.1 |
| 20260506043525 | 46 | 9 | 0.0 | 2.0 | 0.00 | 0.42 | 0.00 | 93 | 1010.0 |
| 20260506043040 | 46 | 0 | 0.0 | 2.0 | 0.00 | 0.42 | 0.00 | 92 | 1010.0 |
| 20260506042526 | 46 | 0 | 0.0 | 3.0 | 0.00 | 0.42 | 0.00 | 92 | 1010.0 |
| 20260506042025 | 46 | 0 | 0.0 | 3.0 | 0.00 | 0.42 | 0.00 | 92 | 1010.0 |
| 20260506041548 | 46 | 9 | 1.0 | 3.0 | 0.00 | 0.42 | 0.00 | 92 | 1010.1 |
| 20260506041025 | 46 | 0 | 1.0 | 2.0 | 0.00 | 0.42 | 0.00 | 92 | 1010.1 |
| 20260506040526 | 46 | 0 | 0.0 | 2.0 | 0.00 | 0.42 | 0.00 | 92 | 1010.2 |
| 20260506040047 | 46 | 342 | 1.0 | 3.0 | 0.00 | 0.42 | 0.00 | 92 | 1010.4 |
| 20260506035525 | 46 | 0 | 1.0 | 3.0 | 0.00 | 0.42 | 0.42 | 91 | 1010.3 |
| 20260506035026 | 46 | 342 | 0.0 | 3.0 | 0.00 | 0.42 | 0.42 | 91 | 1010.4 |
| 20260506034545 | 46 | 342 | 2.0 | 3.0 | 0.00 | 0.42 | 0.42 | 91 | 1010.4 |
| 20260506034026 | 47 | 338 | 2.0 | 3.0 | 0.00 | 0.42 | 0.42 | 91 | 1010.4 |
| 20260506033526 | 47 | 338 | 0.0 | 3.0 | 0.00 | 0.42 | 0.42 | 91 | 1010.3 |
| 20260506033044 | 47 | 338 | 1.0 | 3.0 | 0.00 | 0.42 | 0.42 | 91 | 1010.3 |
| 20260506032525 | 47 | 338 | 2.0 | 4.0 | 0.00 | 0.42 | 0.42 | 91 | 1010.4 |
| 20260506032026 | 47 | 333 | 2.0 | 4.0 | 0.00 | 0.42 | 0.42 | 90 | 1010.4 |
| 20260506031544 | 47 | 336 | 1.0 | 3.0 | 0.00 | 0.42 | 0.42 | 90 | 1010.5 |
| 20260506031026 | 47 | 330 | 1.0 | 3.0 | 0.00 | 0.42 | 0.42 | 90 | 1010.4 |
| 20260506030525 | 48 | 343 | 1.0 | 4.0 | 0.00 | 0.42 | 0.42 | 90 | 1010.5 |
| 20260506030044 | 48 | 343 | 2.0 | 4.0 | 0.00 | 0.42 | 0.42 | 90 | 1010.7 |
| 20260506025525 | 48 | 343 | 2.0 | 4.0 | 0.00 | 0.42 | 0.42 | 90 | 1010.7 |
| 20260506025029 | 48 | 338 | 2.0 | 3.0 | 0.00 | 0.42 | 0.42 | 90 | 1010.5 |
| 20260506024548 | 48 | 338 | 2.0 | 3.0 | 0.00 | 0.42 | 0.42 | 89 | 1010.7 |
| 20260506024027 | 49 | 333 | 1.0 | 4.0 | 0.00 | 0.42 | 0.42 | 90 | 1010.8 |
| 20260506023526 | 49 | 333 | 1.0 | 4.0 | 0.00 | 0.42 | 0.42 | 90 | 1010.7 |
| 20260506023054 | 49 | 355 | 1.0 | 4.0 | 0.00 | 0.42 | 0.42 | 90 | 1010.7 |
| 20260506022524 | 50 | 5 | 1.0 | 3.0 | 0.00 | 0.42 | 0.42 | 91 | 1010.7 |
| 20260506022026 | 50 | 344 | 1.0 | 3.0 | 0.00 | 0.42 | 0.42 | 91 | 1010.5 |
| 20260506021554 | 50 | 352 | 1.0 | 3.0 | 0.00 | 0.42 | 0.42 | 91 | 1010.3 |
| 20260506021028 | 50 | 332 | 0.0 | 2.0 | 0.00 | 0.42 | 0.42 | 91 | 1010.3 |
| 20260506020526 | 50 | 0 | 0.0 | 1.0 | 0.00 | 0.42 | 0.42 | 91 | 1010.4 |
| 20260506020040 | 50 | 0 | 0.0 | 2.0 | 0.00 | 0.42 | 0.42 | 91 | 1010.2 |
| 20260506015525 | 50 | 0 | 0.0 | 3.0 | 0.00 | 0.42 | 0.42 | 90 | 1010.2 |
| 20260506015029 | 50 | 0 | 0.0 | 3.0 | 0.00 | 0.42 | 0.42 | 90 | 1010.1 |
| 20260506014545 | 50 | 332 | 1.0 | 3.0 | 0.00 | 0.42 | 0.42 | 90 | 1009.9 |
| 20260506014025 | 50 | 328 | 1.0 | 3.0 | 0.00 | 0.42 | 0.42 | 90 | 1009.8 |
| 20260506013524 | 50 | 11 | 1.0 | 3.0 | 0.00 | 0.42 | 0.42 | 90 | 1009.8 |
| 20260506013046 | 50 | 12 | 1.0 | 3.0 | 0.00 | 0.42 | 0.42 | 90 | 1009.7 |
| 20260506012527 | 51 | 331 | 1.0 | 3.0 | 0.00 | 0.42 | 0.42 | 90 | 1009.9 |
| 20260506012025 | 51 | 331 | 2.0 | 4.0 | 0.01 | 0.42 | 0.42 | 90 | 1009.8 |
| 20260506011542 | 51 | 331 | 2.0 | 5.0 | 0.01 | 0.42 | 0.42 | 90 | 1009.9 |
| 20260506011025 | 51 | 331 | 3.0 | 5.0 | 0.01 | 0.42 | 0.42 | 90 | 1009.8 |
| 20260506010526 | 51 | 336 | 3.0 | 6.0 | 0.01 | 0.42 | 0.42 | 90 | 1009.7 |
| 20260506010049 | 52 | 323 | 2.0 | 6.0 | 0.01 | 0.42 | 0.42 | 90 | 1009.8 |
| 20260506005525 | 52 | 331 | 3.0 | 6.0 | 0.01 | 0.42 | 0.42 | 90 | 1009.4 |
| 20260506005024 | 53 | 327 | 2.0 | 6.0 | 0.01 | 0.42 | 0.42 | 91 | 1009.3 |
| 20260506004548 | 53 | 331 | 3.0 | 6.0 | 0.01 | 0.42 | 0.42 | 90 | 1009.4 |
| 20260506004024 | 54 | 342 | 3.0 | 6.0 | 0.01 | 0.42 | 0.42 | 91 | 1009.5 |
| 20260506003525 | 54 | 302 | 3.0 | 6.0 | 0.02 | 0.42 | 0.42 | 91 | 1009.6 |
| 20260506003045 | 54 | 331 | 4.0 | 10.0 | 0.04 | 0.42 | 0.42 | 90 | 1009.4 |
| 20260506002524 | 55 | 341 | 3.0 | 10.0 | 0.07 | 0.42 | 0.42 | 90 | 1009.2 |
| 20260506002025 | 55 | 322 | 4.0 | 10.0 | 0.06 | 0.41 | 0.41 | 90 | 1009.5 |
| 20260506001547 | 56 | 348 | 4.0 | 9.0 | 0.06 | 0.41 | 0.41 | 90 | 1008.8 |
| 20260506001024 | 56 | 349 | 3.0 | 9.0 | 0.06 | 0.41 | 0.41 | 89 | 1008.4 |
| 20260506000526 | 57 | 24 | 4.0 | 8.0 | 0.06 | 0.41 | 0.41 | 88 | 1008.2 |
| 20260506000045 | 59 | 334 | 3.0 | 5.0 | 0.06 | 0.41 | 0.41 | 90 | 1008.1 |
| 20260505235523 | 59 | 169 | 0.0 | 2.0 | 0.06 | 0.41 | 0.41 | 90 | 1007.8 |
| 20260505235027 | 59 | 0 | 0.0 | 2.0 | 0.06 | 0.41 | 0.41 | 89 | 1007.8 |
| 20260505234602 | 59 | 0 | 0.0 | 9.0 | 0.06 | 0.41 | 0.41 | 88 | 1007.9 |
| 20260505234023 | 59 | 0 | 0.0 | 15.0 | 0.06 | 0.41 | 0.41 | 88 | 1007.8 |
| 20260505233525 | 60 | 242 | 5.0 | 15.0 | 0.05 | 0.40 | 0.40 | 87 | 1007.9 |
| 20260505233041 | 60 | 182 | 10.0 | 15.0 | 0.02 | 0.37 | 0.37 | 85 | 1008.1 |
| 20260505232526 | 61 | 192 | 8.0 | 13.0 | 0.00 | 0.35 | 0.35 | 84 | 1007.7 |
| 20260505232026 | 61 | 181 | 4.0 | 7.0 | 0.00 | 0.35 | 0.35 | 83 | 1007.5 |
| 20260505231545 | 62 | 185 | 3.0 | 5.0 | 0.00 | 0.35 | 0.35 | 82 | 1007.1 |
| 20260505231025 | 62 | 0 | 0.0 | 3.0 | 0.00 | 0.35 | 0.35 | 81 | 1007.1 |
| 20260505230525 | 62 | 197 | 1.0 | 3.0 | 0.00 | 0.35 | 0.35 | 80 | 1007.0 |
| 20260505230046 | 62 | 220 | 0.0 | 4.0 | 0.00 | 0.35 | 0.35 | 80 | 1007.0 |
| 20260505225525 | 63 | 220 | 1.0 | 5.0 | 0.00 | 0.35 | 0.35 | 80 | 1007.0 |
| 20260505225025 | 63 | 202 | 1.0 | 5.0 | 0.00 | 0.35 | 0.35 | 80 | 1007.1 |
| 20260505224547 | 63 | 232 | 3.0 | 8.0 | 0.00 | 0.35 | 0.35 | 79 | 1007.2 |
| 20260505224025 | 63 | 197 | 3.0 | 8.0 | 0.00 | 0.35 | 0.35 | 79 | 1007.1 |
| 20260505223529 | 63 | 221 | 4.0 | 8.0 | 0.00 | 0.35 | 0.35 | 78 | 1007.1 |
| 20260505223047 | 63 | 219 | 1.0 | 7.0 | 0.00 | 0.35 | 0.35 | 79 | 1007.1 |
| 20260505222523 | 63 | 217 | 3.0 | 8.0 | 0.00 | 0.35 | 0.35 | 79 | 1007.1 |
| 20260505222024 | 63 | 203 | 2.0 | 8.0 | 0.00 | 0.35 | 0.35 | 79 | 1007.1 |
| 20260505221545 | 63 | 229 | 2.0 | 9.0 | 0.00 | 0.35 | 0.35 | 79 | 1007.2 |
| 20260505221029 | 63 | 231 | 3.0 | 9.0 | 0.00 | 0.35 | 0.35 | 79 | 1007.2 |
| 20260505220523 | 63 | 215 | 3.0 | 7.0 | 0.00 | 0.35 | 0.35 | 78 | 1007.2 |
| 20260505220045 | 63 | 202 | 4.0 | 8.0 | 0.00 | 0.35 | 0.35 | 79 | 1007.1 |
| 20260505215525 | 63 | 198 | 4.0 | 8.0 | 0.00 | 0.35 | 0.35 | 79 | 1006.9 |
| 20260505215025 | 63 | 176 | 3.0 | 7.0 | 0.00 | 0.35 | 0.35 | 79 | 1006.8 |
| 20260505214601 | 63 | 221 | 2.0 | 8.0 | 0.00 | 0.35 | 0.35 | 80 | 1006.7 |
| 20260505214022 | 62 | 219 | 5.0 | 8.0 | 0.00 | 0.35 | 0.35 | 78 | 1006.6 |
| 20260505213523 | 62 | 227 | 3.0 | 8.0 | 0.01 | 0.35 | 0.35 | 79 | 1006.5 |
| 20260505213046 | 62 | 207 | 3.0 | 8.0 | 0.01 | 0.35 | 0.35 | 79 | 1006.5 |
| 20260505212527 | 62 | 219 | 3.0 | 8.0 | 0.01 | 0.35 | 0.35 | 79 | 1006.5 |
| 20260505212023 | 62 | 207 | 3.0 | 8.0 | 0.01 | 0.35 | 0.35 | 81 | 1006.5 |
| 20260505211539 | 61 | 196 | 1.0 | 8.0 | 0.01 | 0.35 | 0.35 | 82 | 1006.5 |
| 20260505211026 | 61 | 197 | 2.0 | 11.0 | 0.01 | 0.35 | 0.35 | 83 | 1006.6 |
| 20260505210523 | 60 | 217 | 4.0 | 11.0 | 0.01 | 0.35 | 0.35 | 82 | 1006.6 |
| 20260505210050 | 60 | 211 | 5.0 | 12.0 | 0.01 | 0.35 | 0.35 | 83 | 1006.7 |
| 20260505205523 | 60 | 181 | 5.0 | 12.0 | 0.01 | 0.35 | 0.35 | 83 | 1006.8 |
| 20260505205022 | 60 | 155 | 6.0 | 12.0 | 0.01 | 0.35 | 0.35 | 84 | 1006.9 |
| 20260505204555 | 60 | 201 | 6.0 | 15.0 | 0.01 | 0.35 | 0.35 | 84 | 1007.1 |
| 20260505204024 | 60 | 217 | 8.0 | 16.0 | 0.01 | 0.35 | 0.35 | 84 | 1007.2 |
| 20260505203524 | 60 | 260 | 8.0 | 16.0 | 0.00 | 0.34 | 0.34 | 83 | 1007.3 |
| 20260505203049 | 60 | 163 | 5.0 | 16.0 | 0.01 | 0.34 | 0.34 | 84 | 1007.2 |
| 20260505202525 | 60 | 258 | 5.0 | 12.0 | 0.06 | 0.34 | 0.34 | 86 | 1007.3 |
| 20260505202024 | 60 | 283 | 3.0 | 11.0 | 0.13 | 0.34 | 0.34 | 87 | 1007.3 |